STARLINK-2320 (47866 NORAD) Tracking and Keplerian Element Data

This shows tracking and keplerian element data for the satellite.

Feedback or suggestion? Click here.




ElementValue
Catalog47866
NameSTARLINK-2320
Epoch Orbit197
Epoch Day173.91668981
Epoch Year2021
RAAN79.385
Inclination53.0474
Eccentricity0.0001336
Argument of Perigee70.7677
Mean Anonmoly90.8941
Mean Motion15.50114005
Decay Rate-0.01082013
L11 47866U 21021G 21173.91668981 -.01082013 00000-0 -20867-1 0 9990
L22 47866 53.0474 79.3850 0001336 70.7677 90.8941 15.50114005 1975

Live tracking and technical data element details for STARLINK-2320 (NORAD 47866). STARLINK-2320 can be tracked NOW for your location showing map with azimuth and elevation plus other details from your city location.

Track the satellite on the map from your city or location and see movement details for azimuth, elevation, latitude, longitude, range, height, and movement on the map or in text.







IsCatalogInMostPopularTable: catalog: 47866, numindb: 45
Update: records affected: 1



GetName: 47866 STARLINK-2320

Hit Count: updated at: Thu, 24 Jun 2021 03:56:30 GMT